Home > Weather > Santa Clara > Past weeks

Flag for U.S.A. Weather for the Past 2 Weeks in Santa Clara, California, U.S.A.

Now
68 °F

Broken clouds.


Feels Like: 68 °F
Forecast: 48 / 68 °F
Wind: 9 mph from Northwest

Location: San Jose International Airport

Current Time: Feb 11, 2016 at 5:53:14 PM

Latest Report: Feb 11, 2016 at 4:53 PM


Visibility: 10 mi

Pressure: 30.12 "Hg

Humidity: 55%

Dew point: 51 °F

Location of Santa ClaraLocation

Historic Weather in Santa Clara — Graph

°F

Santa Clara Temperature Yesterday

Maximum temperature yesterday: 72 °F (at 2:53 PM)
Minimum temperature yesterday: 47 °F (at 5:53 AM)
Average temperature yesterday: 59 °F

High & Low Weather Summary for the Past Weeks

 TemperatureHumidityPressure
High76 °F (Feb 7, 2:53 PM)93% (Jan 29, 10:53 PM)30.46 "Hg (Jan 29, 10:53 PM)
Low39 °F (Feb 2, 12:53 AM)23% (Feb 7, 2:53 PM)29.76 "Hg (Jan 31, 2:53 PM)
Average54 °F68%30.21 "Hg
* Reported Jan 27 3:53 PM — Feb 11 3:53 PM, Santa Clara, Weather by CustomWeather, © 2016

Note: Actual official high and low records may vary slightly from our data, if they occured in-between our weather recording intervals... More about our weather records

Advertising

Santa Clara Weather History for the Previous 24 Hours

 ConditionsComfort  
Time TempWeatherWind HumidityBarometerVisibility
3:53 PM
Thu, Feb 11
69 °FBroken clouds.3 mph57%30.11 "Hg10 mi
2:53 PM70 °FBroken clouds.8 mph47%30.11 "Hg10 mi
1:53 PM72 °FBroken clouds.No wind43%30.10 "Hg10 mi
12:53 PM68 °FMostly cloudy.No wind51%30.12 "Hg10 mi
11:53 AM67 °FMostly cloudy.8 mph57%30.15 "Hg8 mi
10:53 AM66 °FMore clouds than sun.10 mph59%30.16 "Hg10 mi
9:53 AM62 °FMore clouds than sun.3 mph60%30.15 "Hg10 mi
8:53 AM56 °FBroken clouds.5 mph72%30.16 "Hg10 mi
7:53 AM50 °FMostly cloudy.3 mph83%30.15 "Hg8 mi
6:53 AM50 °FPassing clouds.No wind83%30.13 "Hg10 mi
5:53 AM50 °FClear.6 mph86%30.11 "Hg9 mi
4:53 AM48 °FClear.5 mph86%30.13 "Hg10 mi
3:53 AM51 °FClear.3 mph83%30.13 "Hg10 mi
2:53 AM52 °FClear.3 mph80%30.14 "Hg10 mi
1:53 AM52 °FClear.5 mph80%30.14 "Hg10 mi
12:53 AM53 °FClear.No wind80%30.15 "Hg10 mi
11:53 PM
Wed, Feb 10
55 °FPassing clouds.3 mph77%30.15 "Hg10 mi
10:53 PM59 °FPassing clouds.No wind69%30.15 "Hg10 mi
9:53 PM60 °FPassing clouds.3 mph69%30.14 "Hg8 mi
8:53 PM61 °FPassing clouds.5 mph67%30.14 "Hg9 mi
7:53 PM63 °FMostly cloudy.No wind63%30.14 "Hg9 mi
6:53 PM65 °FMostly cloudy.No wind61%30.15 "Hg10 mi
5:53 PM64 °FMostly cloudy.3 mph63%30.16 "Hg9 mi
Weather by CustomWeather, © 2016

See weather overviewHow to use our weather pages